FW5431 Weather Reports


Display with metric or nautical units.
time (UTC)temp
F
wind
direction
speed
MPH
gust
MPH
rain 1hr
in
rain 24hr
in
rain mn
in
humidity
%
barometer
mb
20260506073059 64 251 0.0 0.0 0.00 0.00 0.00 95 1018.0
20260506071559 64 251 0.0 0.0 0.00 0.00 0.00 95 1018.0
20260506070125 64 251 0.0 0.0 0.00 0.00 0.00 95 1017.9
20260506061559 65 251 0.0 0.0 0.00 0.00 0.00 95 1017.7
20260506044601 66 251 0.0 0.0 0.00 0.00 0.00 94 1017.8
20260506043059 66 251 0.0 0.0 0.00 0.00 0.00 94 1018.0
20260506041611 66 251 0.0 0.0 0.00 0.00 0.00 94 1017.9
20260506040100 66 251 0.0 1.0 0.00 0.00 0.00 94 1018.0
20260506040002 66 251 0.0 1.0 0.00 0.00 0.00 94 1018.0
20260506034603 66 251 0.0 0.0 0.00 0.00 0.00 94 1018.1
20260506033058 67 251 0.0 0.0 0.00 0.00 0.00 94 1018.1
20260506031601 67 251 0.0 1.0 0.00 0.00 0.00 93 1018.1
20260506030059 67 251 0.0 0.0 0.00 0.00 0.00 93 1018.1
20260506030003 67 251 0.0 0.0 0.00 0.00 0.00 93 1018.1
20260506024606 67 251 0.0 0.0 0.00 0.00 0.00 93 1018.2
20260506023057 67 251 0.0 0.0 0.00 0.00 0.00 93 1018.3
20260506021559 68 251 0.0 2.0 0.00 0.00 0.00 93 1018.3
20260506020110 68 251 0.0 0.0 0.00 0.00 0.00 93 1018.3
20260506020001 68 251 0.0 0.0 0.00 0.00 0.00 93 1018.3
20260506014612 68 251 0.0 1.0 0.00 0.00 0.00 93 1018.4
20260506013058 68 251 0.0 1.0 0.00 0.00 0.00 93 1018.4
20260506011623 68 251 0.0 0.0 0.00 0.00 0.00 92 1018.4
20260506010058 69 251 0.0 2.0 0.00 0.00 0.00 92 1018.2
20260506010001 69 251 0.0 2.0 0.00 0.00 0.00 92 1018.2
20260506004605 69 251 0.0 0.0 0.00 0.00 0.00 92 1018.4
20260506003058 69 251 0.0 1.0 0.00 0.00 0.00 92 1018.3
20260506001604 69 251 0.0 0.0 0.00 0.00 0.00 92 1018.1
20260506000121 70 251 0.0 0.0 0.00 0.00 0.00 92 1018.0
20260506000001 70 251 0.0 0.0 0.00 0.00 0.00 92 1018.0
20260505234601 70 251 0.0 1.0 0.00 0.00 0.00 91 1017.8
20260505233101 70 251 0.0 0.0 0.00 0.00 0.00 91 1017.7
20260505231613 71 251 0.0 1.0 0.00 0.00 0.00 91 1017.6
20260505230109 71 251 0.0 1.0 0.00 0.00 0.00 91 1017.4
20260505230003 71 251 0.0 1.0 0.00 0.00 0.00 91 1017.4
20260505224600 71 251 0.0 0.0 0.00 0.00 0.00 90 1017.3
20260505223103 72 251 0.0 1.0 0.00 0.00 0.00 90 1017.2
20260505221602 72 251 0.0 2.0 0.00 0.00 0.00 90 1017.0
20260505220059 73 251 0.0 0.0 0.00 0.00 0.00 89 1017.0
20260505214558 73 251 0.0 3.0 0.00 0.00 0.00 89 1017.0
20260505213058 73 269 0.0 2.0 0.00 0.00 0.00 89 1016.9
20260505211558 74 267 0.0 2.0 0.00 0.00 0.00 88 1016.7
20260505210059 75 267 0.0 2.0 0.00 0.00 0.00 87 1016.6
20260505210002 75 267 0.0 2.0 0.00 0.00 0.00 87 1016.6
20260505204602 76 267 0.0 0.0 0.00 0.00 0.00 86 1016.4
20260505203105 77 267 0.0 1.0 0.00 0.00 0.00 85 1016.3
20260505201558 78 267 1.0 3.0 0.00 0.00 0.00 83 1016.1
20260505200059 81 261 2.0 3.0 0.00 0.00 0.00 79 1016.0
20260505200001 81 265 2.0 3.0 0.00 0.00 0.00 78 1016.0
20260505194618 83 22 1.0 2.0 0.00 0.00 0.00 76 1015.8
20260505193106 83 22 0.0 3.0 0.00 0.00 0.00 74 1015.7
20260505191608 83 26 1.0 5.0 0.00 0.00 0.00 72 1015.7
20260505190058 84 39 2.0 5.0 0.00 0.00 0.00 72 1015.8
20260505190001 84 25 2.0 5.0 0.00 0.00 0.00 72 1015.8
20260505184558 84 49 1.0 6.0 0.00 0.00 0.00 72 1015.8
20260505183058 84 41 3.0 6.0 0.00 0.00 0.00 71 1015.8
20260505181558 83 19 2.0 7.0 0.00 0.00 0.00 71 1016.0
20260505180002 83 37 4.0 6.0 0.00 0.00 0.00 71 1016.1
20260505174558 83 34 2.0 7.0 0.00 0.00 0.00 71 1016.2
20260505173113 83 42 2.0 7.0 0.00 0.00 0.00 72 1016.4
20260505171625 83 31 1.0 5.0 0.00 0.00 0.00 73 1016.5
20260505170058 83 32 0.0 5.0 0.00 0.00 0.00 73 1016.7
20260505170001 83 32 0.0 5.0 0.00 0.00 0.00 72 1016.7
20260505164605 82 4 1.0 5.0 0.00 0.00 0.00 73 1017.1
20260505163058 82 58 3.0 5.0 0.00 0.00 0.00 73 1017.3
20260505161602 81 117 0.0 5.0 0.00 0.00 0.00 74 1017.6
20260505153058 80 49 3.0 7.0 0.00 0.00 0.00 74 1018.3
20260505151600 80 26 2.0 6.0 0.00 0.00 0.00 75 1018.4
20260505150125 79 56 3.0 5.0 0.00 0.00 0.00 74 1018.6
20260505130104 73 62 1.0 4.0 0.00 0.00 0.00 83 1019.9
20260505124601 71 85 1.0 4.0 0.00 0.00 0.00 84 1019.8
20260505123103 70 66 2.0 4.0 0.00 0.00 0.00 86 1019.7
20260505121627 68 69 2.0 5.0 0.00 0.00 0.00 88 1019.7
20260505120058 67 262 1.0 2.0 0.00 0.00 0.00 93 1019.6
20260505120001 67 262 0.0 2.0 0.00 0.00 0.00 93 1019.6
20260505114558 64 245 0.0 1.0 0.00 0.00 0.00 97 1019.6
20260505113103 63 245 0.0 1.0 0.00 0.00 0.00 97 1019.6
20260505111558 62 245 0.0 0.0 0.00 0.00 0.00 96 1019.5
20260505101559 61 245 0.0 0.0 0.00 0.00 0.00 96 1019.1
20260505100137 61 244 0.0 0.0 0.00 0.00 0.00 96 1018.9
20260505100004 61 238 0.0 0.0 0.00 0.00 0.00 96 1018.9
20260505094558 60 238 0.0 0.0 0.00 0.00 0.00 95 1018.7
20260505093058 60 238 0.0 0.0 0.00 0.00 0.00 95 1018.5
20260505091618 60 238 0.0 0.0 0.00 0.00 0.00 95 1018.3
20260505084602 60 238 0.0 0.0 0.00 0.00 0.00 95 1018.0
20260505083057 61 238 0.0 0.0 0.00 0.00 0.00 95 1017.8
20260505081558 61 238 0.0 0.0 0.00 0.00 0.00 95 1017.8
20260505080058 61 238 0.0 0.0 0.00 0.00 0.00 95 1017.8
20260505080000 61 238 0.0 0.0 0.00 0.00 0.00 95 1017.8
20260505074558 61 238 0.0 0.0 0.00 0.00 0.00 95 1017.7